Location: Cosy Dell
(34.2789°N, 117.4537°W)
Time: 12:11:23
(UTC+00:00)

Cosmos 1743 - Pass Details

Date: 14 July 2020
Orbit: 511 x 526 km, 82.6° (Epoch: 08 August)

Event Time Altitude Azimuth Distance (km) Brightness Sun altitude
Exits shadow 10:58:02 52° 257° (WSW) 643 2.8 -19.3°
Maximum altitude 10:58:20 54° 278° (W) 629 2.8 -19.3°
Drops below altitude 10° 11:02:05 10° 357° (N) 1,746 5.9 -18.7°
Sets 11:04:16 0° 2° (N) 2,639 7.0 -18.4°
